Wind_Speed
26 25 24 26 27 27 27 27 26 26 25 24 23 22 23 23 23 23 23 23 23 24 25 26 27 27 27 28 27 27 28 28 28 29 29 29 29 29 30 31 32 33 34 36 36 37 37 37 38 38 37 38 39 39 38 37 37 35 34 35 36 36 36
27 26 26 27 28 27 28 28 27 27 26 25 25 25 25 26 26 26 26 26 26 26 27 28 28 29 29 29 28 28 29 30 30 30 30 30 31 31 31 32 34 35 37 38 39 39 39 40 40 39 38 38 39 38 37 37 38 37 36 37 37 37 36
29 28 28 29 29 29 29 30 29 29 28 27 27 27 28 28 28 28 28 28 28 29 29 29 30 30 30 30 30 30 30 31 31 31 32 32 32 32 33 34 36 37 38 39 40 41 41 41 40 39 38 37 36 35 35 36 37 37 38 39 39 39 39
31 29 29 32 32 32 32 32 31 31 31 30 29 30 30 30 30 30 30 30 30 31 31 31 31 31 31 31 31 31 32 32 32 33 34 34 34 34 34 35 37 39 40 41 42 42 42 41 40 38 37 36 34 34 34 36 37 37 38 39 39 40 40
33 30 31 35 37 36 34 34 34 34 34 33 32 32 33 32 32 32 32 32 32 32 32 32 32 32 32 32 33 33 33 33 33 34 35 36 36 36 36 37 39 40 41 42 42 43 42 40 39 38 36 35 35 36 37 38 39 39 39 40 41 41 41
37 34 34 37 39 38 37 37 36 36 36 35 35 35 35 34 34 34 34 34 34 34 33 33 33 33 34 34 35 35 35 34 34 35 37 37 37 38 38 39 40 41 42 43 43 43 41 41 40 39 37 36 36 37 38 40 41 41 41 41 42 42 42
41 39 38 39 40 40 40 39 39 39 38 37 37 37 37 37 36 36 36 36 35 35 34 34 34 35 36 36 37 37 36 36 36 37 39 39 39 40 41 42 43 43 43 44 44 44 43 43 41 38 37 37 38 39 39 41 42 42 42 42 44 45 45
43 42 41 40 41 41 41 41 42 42 40 39 40 39 39 39 38 38 37 37 36 36 36 36 37 37 38 38 39 38 38 38 39 40 40 41 41 42 44 45 45 44 46 46 46 47 47 45 41 38 38 40 42 42 42 43 42 41 42 45 47 48 47
47 44 41 41 41 42 42 43 44 43 42 41 41 40 40 40 39 39 38 38 37 37 37 37 38 40 40 41 41 40 40 41 41 42 42 43 43 45 46 46 45 46 48 49 49 50 49 46 44 43 43 44 45 45 45 44 43 44 46 49 50 50 49
50 45 42 42 43 44 45 45 46 45 43 42 42 41 41 40 40 40 39 39 38 38 38 37 38 41 43 43 43 42 42 43 43 43 43 44 46 47 46 46 46 48 50 51 52 52 50 48 49 48 47 47 46 46 46 46 47 49 52 54 54 53 52
50 46 45 46 45 46 46 46 46 46 45 44 43 43 42 41 42 41 40 40 38 38 39 38 39 42 45 45 45 45 45 45 45 45 45 46 49 49 47 47 48 50 52 53 54 53 52 50 49 48 49 49 48 49 49 50 51 53 56 57 58 58 58
52 49 48 48 47 47 47 45 46 46 46 46 45 44 43 43 43 43 42 41 40 38 39 39 40 44 47 48 48 48 47 46 47 47 48 49 50 49 49 49 49 50 52 54 54 54 54 52 49 48 49 49 50 51 50 51 53 55 57 59 61 62 62
55 52 50 49 48 48 48 47 47 47 47 47 47 46 45 45 45 44 44 43 42 41 40 42 45 48 50 50 50 50 49 47 49 50 51 51 51 51 50 50 51 52 53 54 54 55 54 53 52 51 49 48 48 49 50 52 55 57 59 61 62 63 64
57 54 52 51 49 48 48 47 47 48 48 48 48 48 48 47 47 46 46 45 44 44 45 46 49 51 52 52 52 52 51 49 51 54 53 52 52 53 53 53 53 54 54 55 55 55 54 53 53 52 50 49 49 51 53 56 58 60 62 63 64 65 65
59 56 54 52 50 49 48 47 48 48 49 48 49 50 50 49 48 48 48 47 47 48 49 51 52 53 54 54 54 54 53 51 53 55 55 54 53 54 54 55 56 56 56 56 55 55 54 53 52 52 52 52 53 55 57 59 61 63 64 65 66 67 67
60 59 57 56 53 51 50 50 50 50 50 50 51 51 51 51 50 50 49 49 50 52 53 54 55 56 56 56 56 56 55 54 55 56 56 55 55 54 54 56 57 58 57 57 56 55 54 54 53 53 53 54 56 57 59 61 63 65 66 66 67 67 68
62 62 61 59 55 52 52 52 52 52 53 53 52 52 52 52 52 51 51 52 54 55 56 58 58 58 57 57 57 57 57 57 58 58 58 57 56 56 55 56 57 58 58 57 56 55 54 54 54 53 54 55 57 59 61 63 65 66 67 67 67 67 67
67 66 63 61 58 53 53 55 55 55 55 55 54 53 54 54 54 53 53 55 57 58 59 61 61 60 59 58 58 58 59 59 59 60 60 59 58 58 57 57 58 58 58 57 57 56 55 54 55 55 55 56 58 60 62 64 66 67 67 67 67 67 67
70 67 64 64 61 55 54 56 58 58 58 57 56 55 56 56 55 56 56 57 59 61 62 63 62 62 61 60 60 60 60 60 61 61 61 60 60 60 60 60 59 59 58 57 57 57 56 55 55 55 56 57 59 61 63 65 66 66 66 67 67 68 68
71 68 66 66 63 58 57 58 60 60 61 59 58 57 57 57 57 58 59 60 61 63 65 64 64 64 64 63 62 62 62 62 62 62 62 61 62 62 62 62 61 60 60 59 58 58 58 57 57 57 58 59 61 62 64 65 65 65 66 67 68 69 69
73 70 69 67 64 61 61 63 62 61 63 63 60 58 58 59 60 61 61 62 63 65 66 66 65 66 66 65 65 64 63 63 63 63 64 63 64 64 64 63 63 62 62 61 60 60 59 59 59 59 60 61 63 65 66 66 65 66 67 69 70 69 68
74 72 71 69 67 65 66 67 64 62 64 65 62 60 59 60 62 63 63 64 65 66 68 68 67 68 68 68 67 66 64 64 64 65 66 66 66 65 65 65 65 65 64 64 63 62 61 60 61 62 63 64 65 67 67 66 66 67 69 70 71 70 70
77 74 72 70 69 69 69 69 67 65 67 68 65 62 61 62 64 65 66 66 66 68 70 70 70 70 70 70 69 68 66 66 65 65 67 68 68 67 66 66 67 67 66 65 64 63 63 62 63 64 65 66 67 69 68 67 67 69 71 71 71 71 71
81 78 75 73 73 72 72 72 69 68 70 71 68 64 63 64 65 67 68 67 68 70 71 73 73 72 72 71 71 70 69 69 68 67 68 69 70 68 67 68 69 68 68 67 66 65 64 64 65 66 67 68 69 70 70 69 69 71 72 73 72 72 71
85 82 79 78 77 75 74 74 72 71 73 73 70 67 66 66 67 69 69 70 71 72 73 74 75 75 74 73 72 72 72 71 71 70 70 71 70 69 68 69 69 69 68 68 66 66 65 66 67 67 69 70 71 71 71 70 71 73 74 74 74 73 73
89 86 82 80 78 76 76 76 74 74 75 74 72 70 69 70 71 71 72 72 73 73 73 74 75 75 75 74 73 73 74 74 73 73 72 72 71 69 67 68 69 70 69 68 67 66 67 67 68 69 70 72 71 71 71 72 73 74 75 75 75 74 75
93 89 85 82 80 78 78 79 78 76 76 75 75 74 73 73 74 74 74 75 75 75 74 75 75 76 76 75 74 74 74 75 75 75 74 74 72 70 68 68 70 70 70 69 68 68 68 69 70 70 71 72 72 72 72 73 74 75 75 76 75 75 76
96 91 87 84 82 81 81 81 80 77 76 77 79 78 77 76 76 76 76 76 76 76 75 76 76 77 77 76 75 74 75 76 76 75 76 75 74 72 70 70 71 71 71 70 69 69 70 70 71 71 72 72 73 73 73 74 75 76 76 76 77 77 77
96 92 89 87 86 84 83 82 81 79 79 80 81 81 80 79 78 78 78 77 77 77 77 78 78 78 78 77 76 75 76 76 76 76 76 76 75 73 72 72 72 71 71 71 70 71 71 72 72 73 73 73 73 74 74 75 76 77 77 77 78 79 79
96 93 91 90 88 85 82 82 82 83 82 82 82 83 82 80 79 79 79 78 78 78 79 79 79 79 79 79 77 77 76 75 76 76 76 76 75 73 73 73 73 72 71 71 72 72 73 73 74 74 74 74 75 75 76 76 77 77 77 78 79 80 80
95 94 92 90 87 84 83 83 84 84 84 83 83 83 82 82 81 80 80 80 80 80 80 80 80 80 80 79 79 78 76 75 75 75 75 75 74 74 74 73 73 72 71 72 73 73 74 75 75 76 76 76 77 77 77 77 77 77 78 78 79 80 81
93 92 91 89 87 86 85 84 84 84 84 84 83 83 82 82 81 81 81 81 81 81 81 81 80 80 79 79 79 78 76 75 75 74 75 75 74 74 74 73 72 72 72 73 74 74 75 76 77 77 78 78 78 78 77 77 77 77 78 79 79 80 81
93 92 91 90 89 87 86 84 84 84 84 83 83 83 82 82 82 82 82 81 81 81 82 81 80 79 78 78 78 77 76 75 75 74 74 74 74 73 73 73 73 73 73 74 75 76 77 78 78 79 79 79 78 78 77 77 77 77 78 78 78 80 82
94 93 91 89 88 87 86 85 84 84 83 83 82 82 81 81 81 81 81 81 81 82 82 81 80 79 78 78 77 77 76 76 75 75 75 74 74 74 74 74 74 74 75 76 77 77 78 79 79 80 80 79 79 78 78 77 77 77 79 80 81 83 85
94 93 91 89 88 87 86 85 84 84 83 83 82 82 81 81 81 80 80 80 81 81 81 81 79 78 78 78 78 77 77 76 76 76 76 75 75 75 75 75 76 76 77 77 78 78 79 80 80 80 80 79 79 79 78 78 79 80 81 83 85 86 88
94 93 91 89 88 87 85 84 84 83 83 82 82 82 82 81 81 80 78 76 76 78 80 81 81 80 79 78 78 78 78 77 77 77 76 76 76 76 76 77 78 78 78 78 78 79 80 80 80 80 79 79 80 79 79 80 82 84 85 86 88 89 91
92 92 91 89 88 86 84 83 82 82 82 82 83 82 82 82 81 79 78 77 77 79 81 83 82 80 79 78 78 78 78 78 77 77 76 76 76 77 78 79 79 79 79 79 79 80 80 80 80 80 79 80 81 81 82 83 85 87 88 89 90 91 92
89 90 89 88 87 85 83 82 81 81 82 82 82 81 81 81 79 79 78 78 79 79 79 80 80 80 78 77 77 77 77 77 77 78 78 77 78 78 79 80 80 80 79 79 79 79 80 80 80 80 80 81 83 83 85 86 88 89 89 90 91 91 92
Wind_Direction
235 235 234 238 246 249 249 250 252 254 257 260 263 265 268 271 275 280 284 288 291 294 297 299 301 303 306 308 311 313 315 317 320 321 321 321 323 324 324 325 324 323 322 322 323 325 325 323 322 322 320 319 318 318 318 318 318 315 310 307 308 311 314
237 238 237 238 244 250 252 253 254 255 258 260 262 265 268 273 277 280 284 286 289 291 294 297 298 301 304 307 309 312 314 316 318 318 318 318 320 320 321 321 321 320 320 321 322 323 323 321 321 321 320 319 319 318 318 317 318 317 315 311 309 310 314
237 238 239 242 248 252 254 255 257 258 259 260 262 265 269 273 276 279 281 284 287 289 292 294 296 299 302 305 308 311 313 315 316 315 315 315 316 316 318 319 318 318 318 320 321 322 321 321 320 320 319 318 316 315 315 316 318 319 318 316 313 312 314
238 240 243 247 252 254 253 255 257 259 260 261 263 265 268 272 274 277 280 282 285 287 290 293 295 299 302 304 306 309 311 312 313 313 312 312 312 314 316 316 315 315 316 318 320 320 320 319 318 317 317 317 315 312 313 315 317 319 320 320 316 314 314
242 240 242 247 252 253 253 255 256 258 260 261 263 265 268 271 273 276 279 281 284 287 289 292 295 298 301 303 305 307 308 309 310 309 308 308 310 312 314 313 312 313 315 317 319 319 318 317 315 315 314 314 313 311 312 315 317 318 319 320 317 314 312
243 240 239 246 251 252 252 254 256 257 259 261 263 265 268 271 274 276 279 281 283 286 289 292 295 298 300 301 303 304 305 307 307 306 305 306 308 310 312 312 311 312 314 316 318 318 316 314 313 313 312 312 312 310 311 314 316 316 318 319 317 313 310
244 242 241 245 249 251 252 254 256 257 260 262 264 266 269 272 274 276 279 281 284 286 289 292 295 297 298 300 301 302 303 305 304 303 304 305 308 310 310 310 310 311 314 317 317 316 314 314 313 312 311 312 312 310 310 313 314 316 317 317 315 313 310
245 245 244 246 250 251 252 253 255 258 260 262 264 267 270 272 275 277 279 282 285 288 290 293 296 297 297 298 298 300 302 302 302 302 304 306 309 309 308 308 310 311 314 316 316 317 317 316 313 311 310 310 309 308 309 312 313 315 316 315 314 312 310
244 245 246 247 249 251 252 254 256 258 260 262 265 267 269 272 275 277 280 282 285 288 290 294 296 296 296 296 297 298 300 300 301 302 305 307 308 306 305 307 309 311 314 316 317 318 319 316 311 308 307 307 307 307 309 311 313 315 316 315 314 311 309
245 246 246 246 246 248 252 255 257 259 261 263 265 267 269 271 274 276 279 282 285 288 289 292 294 293 292 294 295 296 297 298 300 302 305 306 304 302 303 307 310 311 313 314 316 317 317 314 309 306 305 307 308 309 309 311 313 315 316 315 313 310 308
248 248 246 245 246 248 251 254 257 260 263 264 265 267 269 271 274 276 279 281 283 286 288 291 293 290 289 292 293 294 295 297 300 302 303 302 300 301 305 308 310 311 312 312 314 315 315 313 309 307 306 306 307 309 310 311 312 313 312 311 310 308 306
250 249 248 247 248 249 252 254 257 260 263 264 266 268 270 272 274 276 278 280 282 285 286 288 288 285 285 289 291 291 294 297 299 300 300 298 299 302 306 308 309 309 310 311 313 313 313 311 309 308 307 305 305 307 309 309 309 309 308 307 306 305 304
248 249 249 249 249 250 252 255 258 260 262 264 267 269 270 272 274 276 278 280 282 284 284 284 283 283 285 287 288 290 293 296 298 298 297 298 301 303 305 307 307 308 309 311 312 311 310 309 309 309 308 305 305 307 308 308 308 308 308 307 307 306 305
248 250 250 251 251 252 254 256 258 261 262 264 266 268 270 271 274 276 278 280 282 283 283 283 282 284 285 286 288 290 292 295 296 296 297 299 302 303 305 306 306 307 309 309 310 309 309 307 306 306 306 304 304 306 307 308 309 309 309 309 309 308 308
247 249 251 252 253 254 256 257 259 261 263 264 266 267 269 271 273 275 277 279 281 282 282 282 282 283 284 286 288 289 292 294 295 295 297 300 301 302 304 305 305 306 307 308 308 308 307 305 304 302 301 301 302 304 306 308 309 309 310 310 310 310 311
246 248 249 251 252 253 255 257 259 261 262 264 265 267 269 271 272 274 277 279 280 280 281 281 281 282 283 285 287 289 292 294 294 295 297 298 299 300 301 302 303 304 305 306 307 306 305 303 302 300 298 299 300 302 305 307 309 310 310 310 310 311 311
244 246 248 250 251 252 255 257 259 260 261 263 265 267 269 271 272 274 275 277 278 278 279 279 280 281 282 284 286 289 291 292 293 294 295 296 296 297 298 299 301 302 304 306 306 305 304 302 301 299 299 300 301 303 305 307 309 310 310 309 310 310 311
244 245 247 250 251 251 253 256 257 259 261 263 265 266 268 270 271 273 274 275 276 277 277 278 279 280 282 283 286 287 289 290 292 293 293 294 295 295 296 298 299 300 303 304 305 304 303 302 300 299 299 300 302 304 306 308 309 309 308 309 309 309 309
244 245 247 249 251 251 252 255 256 258 260 262 264 265 267 268 270 272 272 273 274 275 276 277 279 281 282 283 285 286 287 288 289 290 291 292 293 295 296 297 298 300 301 303 303 303 302 301 300 299 299 301 303 305 306 308 308 307 307 308 308 308 308
246 247 248 249 251 252 252 254 255 257 259 261 262 264 265 267 269 270 271 272 273 275 276 278 279 281 282 282 283 284 285 286 287 288 289 291 292 294 296 297 299 300 301 302 302 302 301 301 299 299 299 301 304 306 306 307 307 306 307 308 308 308 307
249 250 250 251 253 253 253 253 254 256 258 260 261 262 264 265 267 268 270 271 273 274 276 277 279 280 280 281 281 282 283 285 287 288 289 291 292 294 296 298 300 301 302 302 302 302 301 301 300 300 301 303 305 306 307 307 307 306 307 307 307 307 306
248 249 251 252 253 252 253 253 254 255 257 258 260 261 262 264 266 267 269 270 272 274 275 276 277 278 279 280 281 282 283 285 286 288 290 292 293 295 297 300 301 302 302 302 302 302 301 302 302 301 302 304 306 307 307 307 306 306 307 307 307 307 307
245 246 248 250 251 250 251 253 253 254 256 258 259 260 261 263 265 267 268 269 271 273 274 276 276 277 279 280 281 282 284 285 287 289 291 293 294 296 299 301 301 302 302 302 302 302 302 302 303 303 304 305 307 307 307 307 306 306 307 307 307 307 308
245 244 244 245 248 250 251 253 254 254 256 257 258 259 261 262 264 266 267 269 270 271 273 275 276 277 278 280 282 284 285 286 288 290 291 293 295 297 300 301 301 301 301 302 302 302 303 303 303 304 305 306 307 307 307 307 306 307 307 308 308 308 308
244 244 243 244 246 248 250 252 253 254 256 257 259 260 261 262 263 264 266 267 268 270 271 273 275 277 279 280 282 284 286 288 289 290 292 293 295 297 300 301 301 301 301 301 301 302 302 302 303 304 305 306 307 307 306 306 306 307 308 308 308 308 308
244 244 243 244 245 246 248 250 251 253 254 257 258 259 260 261 261 263 264 266 267 268 270 272 274 276 278 280 282 284 286 288 289 290 291 293 294 297 299 299 299 299 299 300 301 301 301 302 303 304 305 306 306 306 306 306 306 307 307 307 307 307 307
243 244 244 244 245 246 247 249 249 251 253 256 257 258 258 259 260 262 263 265 266 268 270 272 274 276 278 280 282 284 286 287 289 290 292 293 295 297 298 297 297 298 298 299 299 299 300 301 302 304 305 305 305 305 305 305 306 306 306 306 306 305 305
242 243 244 245 246 246 246 248 250 251 253 254 256 257 257 259 260 261 263 265 267 269 271 272 274 276 278 280 282 284 285 287 289 290 292 293 295 297 297 296 297 298 298 298 299 299 299 301 302 303 304 304 304 304 304 304 305 305 305 304 304 304 304
242 243 244 245 245 246 247 249 251 252 253 254 256 257 259 260 261 263 265 267 268 270 271 273 274 276 278 280 282 284 285 287 289 290 291 293 294 296 296 297 297 297 298 298 298 298 299 300 302 303 303 303 303 303 303 303 304 304 303 303 303 303 303
242 243 244 244 245 247 249 251 252 253 254 255 257 259 260 262 263 265 266 268 269 271 272 274 275 277 279 281 283 284 285 287 288 290 291 292 294 295 296 296 297 297 297 297 297 297 298 300 301 302 302 302 302 302 303 303 303 303 303 303 303 302 302
242 243 245 246 247 248 249 251 252 254 256 257 258 260 262 264 265 266 268 269 270 272 273 275 276 278 280 282 283 284 285 287 288 289 290 292 293 294 294 295 295 295 295 295 296 297 298 299 300 300 301 301 301 302 302 302 302 302 302 302 302 302 301
243 244 246 247 248 248 249 250 252 254 256 258 259 261 263 264 266 267 269 270 271 272 274 275 276 278 280 281 283 284 285 286 287 288 289 290 292 293 293 294 293 293 294 294 295 296 297 298 299 299 300 300 301 301 301 301 301 301 302 302 302 301 301
243 244 245 246 247 248 250 251 252 254 256 258 259 261 263 264 266 268 269 270 272 273 274 275 276 278 279 280 281 283 284 285 286 287 288 289 290 291 291 291 291 292 292 293 294 296 297 297 298 298 299 300 300 300 300 300 300 300 301 301 300 300 300
243 244 245 247 248 250 250 251 253 254 256 257 259 261 262 264 266 267 269 271 272 273 274 275 276 277 278 279 281 282 283 284 285 286 287 288 289 289 289 290 290 291 292 293 294 295 295 296 297 298 298 298 298 299 299 299 299 299 299 299 299 300 301
243 244 246 247 248 249 250 252 253 254 256 258 259 261 262 264 265 267 269 271 272 272 273 273 274 276 277 279 280 281 282 283 284 285 286 286 287 287 288 289 289 290 291 292 293 294 294 295 296 296 297 297 297 298 298 298 298 298 299 299 300 301 301
242 244 245 246 248 249 251 252 254 255 257 258 259 260 262 263 265 267 268 269 270 272 273 274 275 276 277 278 280 281 282 282 283 284 285 286 287 287 288 288 289 290 291 292 292 293 293 294 295 295 296 296 296 297 297 297 297 297 298 299 300 301 302
241 243 245 246 248 249 251 252 254 256 257 258 259 261 262 263 265 266 267 268 270 272 274 276 277 278 278 280 281 282 282 282 283 284 285 286 287 287 288 289 290 290 290 291 292 292 293 294 294 294 295 295 295 296 296 296 297 298 299 300 301 302 303
242 243 245 247 248 249 251 253 254 256 257 258 259 261 262 264 265 266 268 269 270 273 274 276 277 279 280 281 281 281 282 283 284 285 285 286 287 288 288 289 289 290 290 291 291 292 292 293 293 293 294 294 295 296 296 297 298 299 300 301 302 303 305
Height
10970 10970 10972 10973 10974 10974 10976 10976 10976 10975 10975 10975 10974 10974 10974 10974 10974 10974 10974 10973 10973 10973 10973 10972 10971 10971 10970 10969 10969 10967 10966 10965 10964 10962 10961 10960 10959 10958 10957 10955 10954 10952 10950 10947 10945 10944 10942 10940 10938 10936 10934 10932 10930 10928 10925 10924 10922 10921 10919 10916 10914 10913 10911
10967 10968 10969 10969 10969 10970 10972 10972 10973 10973 10972 10972 10972 10971 10971 10971 10971 10971 10971 10971 10970 10970 10970 10969 10969 10968 10967 10967 10966 10965 10963 10962 10960 10959 10958 10956 10956 10955 10953 10952 10950 10948 10945 10943 10941 10940 10938 10936 10934 10932 10930 10928 10925 10923 10921 10919 10918 10916 10915 10913 10910 10908 10907
10964 10965 10965 10965 10966 10967 10968 10969 10969 10969 10969 10969 10969 10969 10968 10968 10968 10968 10968 10968 10968 10967 10967 10967 10966 10965 10965 10964 10963 10962 10960 10959 10957 10956 10954 10953 10952 10951 10950 10948 10946 10944 10942 10940 10938 10936 10934 10932 10930 10928 10926 10923 10921 10919 10917 10915 10914 10912 10910 10909 10907 10904 10902
10960 10962 10963 10963 10963 10964 10964 10965 10965 10966 10965 10966 10966 10966 10965 10965 10965 10965 10965 10965 10965 10964 10964 10964 10963 10962 10962 10961 10959 10958 10957 10956 10954 10952 10951 10949 10948 10948 10947 10945 10943 10941 10939 10937 10935 10933 10931 10928 10926 10924 10922 10919 10917 10915 10914 10912 10910 10908 10906 10904 10903 10900 10898
10957 10958 10959 10959 10959 10960 10961 10961 10961 10961 10962 10962 10962 10962 10962 10962 10962 10962 10962 10962 10962 10961 10961 10960 10960 10960 10959 10957 10956 10955 10954 10953 10951 10949 10947 10946 10945 10945 10944 10942 10940 10938 10936 10934 10931 10929 10927 10925 10922 10920 10918 10916 10914 10912 10910 10908 10906 10904 10902 10900 10898 10896 10894
10952 10954 10956 10956 10955 10956 10956 10956 10957 10957 10957 10958 10959 10958 10958 10958 10958 10959 10959 10959 10958 10958 10957 10957 10957 10956 10955 10954 10952 10951 10950 10949 10948 10945 10943 10942 10942 10941 10940 10938 10936 10934 10932 10930 10928 10925 10923 10921 10919 10917 10915 10912 10910 10908 10906 10904 10902 10900 10898 10896 10894 10892 10890
10947 10950 10952 10953 10952 10952 10952 10951 10952 10952 10953 10954 10954 10954 10955 10955 10955 10955 10955 10955 10955 10954 10954 10954 10953 10952 10951 10949 10948 10947 10946 10945 10943 10941 10940 10939 10939 10937 10935 10933 10931 10929 10927 10926 10924 10921 10920 10917 10914 10913 10911 10908 10906 10904 10902 10900 10898 10895 10893 10891 10890 10887 10885
10942 10944 10947 10949 10949 10948 10947 10947 10947 10948 10949 10950 10950 10950 10951 10951 10951 10951 10951 10951 10951 10950 10950 10950 10949 10948 10947 10945 10943 10942 10942 10940 10938 10937 10936 10935 10935 10933 10929 10927 10926 10924 10922 10921 10920 10917 10915 10913 10910 10908 10907 10904 10902 10899 10897 10895 10893 10891 10888 10886 10884 10882 10879
10935 10938 10942 10945 10946 10945 10943 10943 10943 10943 10945 10946 10946 10947 10947 10947 10947 10947 10947 10947 10947 10947 10947 10947 10946 10943 10942 10940 10938 10938 10937 10935 10934 10933 10932 10931 10930 10927 10924 10923 10921 10920 10918 10916 10914 10912 10910 10908 10906 10905 10903 10900 10898 10895 10893 10890 10888 10886 10884 10881 10879 10876 10873
10928 10933 10937 10939 10941 10940 10939 10939 10938 10939 10940 10941 10942 10943 10943 10943 10943 10944 10944 10944 10944 10944 10943 10944 10944 10940 10937 10935 10934 10933 10932 10931 10930 10929 10929 10927 10923 10920 10920 10919 10917 10914 10912 10910 10908 10906 10905 10903 10901 10900 10898 10896 10894 10891 10888 10886 10883 10882 10879 10876 10873 10870 10868
10923 10928 10931 10932 10934 10935 10935 10935 10935 10935 10936 10937 10938 10938 10939 10940 10939 10940 10940 10940 10941 10942 10941 10940 10940 10936 10932 10930 10929 10928 10927 10927 10926 10926 10925 10922 10917 10915 10916 10915 10913 10910 10907 10904 10902 10901 10899 10898 10896 10894 10892 10891 10888 10886 10884 10881 10879 10877 10874 10871 10868 10865 10863
10918 10922 10925 10926 10929 10930 10931 10932 10931 10931 10931 10932 10933 10934 10934 10935 10935 10936 10936 10936 10937 10938 10938 10937 10936 10932 10928 10926 10924 10923 10923 10923 10922 10921 10919 10915 10913 10912 10912 10910 10908 10906 10903 10899 10897 10896 10894 10893 10891 10889 10888 10886 10883 10881 10879 10877 10875 10872 10870 10867 10863 10860 10857
10912 10916 10919 10921 10923 10924 10926 10927 10927 10927 10928 10927 10928 10929 10929 10930 10930 10931 10931 10931 10932 10933 10934 10933 10930 10926 10922 10920 10919 10917 10918 10920 10918 10915 10913 10911 10909 10908 10907 10906 10903 10901 10898 10896 10894 10892 10890 10888 10886 10884 10883 10881 10878 10876 10874 10872 10870 10868 10865 10862 10858 10854 10851
10906 10910 10912 10914 10917 10919 10920 10922 10922 10922 10923 10924 10924 10924 10924 10925 10926 10926 10926 10926 10927 10927 10927 10925 10923 10919 10916 10914 10914 10912 10913 10916 10913 10908 10907 10907 10906 10903 10901 10900 10898 10895 10893 10892 10890 10887 10885 10883 10881 10880 10878 10875 10873 10871 10869 10866 10864 10861 10859 10855 10851 10847 10843
10901 10904 10906 10908 10910 10912 10914 10915 10916 10917 10918 10919 10919 10919 10919 10920 10921 10921 10921 10922 10921 10920 10919 10917 10915 10912 10909 10908 10908 10907 10908 10910 10907 10902 10902 10902 10901 10899 10896 10893 10891 10890 10889 10887 10885 10883 10880 10878 10877 10875 10873 10871 10868 10866 10863 10860 10857 10854 10851 10847 10843 10839 10835
10896 10898 10899 10901 10903 10905 10907 10909 10910 10911 10912 10913 10914 10914 10914 10915 10916 10916 10916 10916 10915 10913 10912 10909 10907 10906 10904 10903 10902 10902 10903 10904 10901 10898 10897 10897 10896 10895 10893 10890 10887 10885 10884 10883 10881 10878 10875 10873 10871 10870 10868 10865 10863 10860 10857 10853 10850 10846 10843 10839 10836 10832 10828
10888 10889 10891 10893 10896 10900 10902 10903 10904 10905 10906 10907 10908 10909 10909 10909 10910 10910 10911 10910 10908 10906 10905 10902 10900 10899 10899 10899 10898 10898 10898 10897 10895 10893 10892 10891 10891 10890 10889 10887 10884 10881 10879 10877 10875 10873 10870 10867 10865 10863 10861 10859 10856 10853 10850 10846 10842 10839 10835 10832 10829 10826 10822
10878 10880 10885 10886 10889 10894 10895 10896 10897 10898 10899 10901 10903 10904 10904 10903 10904 10904 10904 10903 10901 10899 10896 10894 10893 10893 10893 10894 10894 10894 10893 10891 10889 10887 10886 10885 10884 10884 10883 10882 10880 10877 10875 10873 10870 10867 10864 10861 10858 10856 10854 10853 10850 10846 10843 10839 10835 10832 10829 10826 10823 10820 10817
10869 10873 10878 10878 10880 10886 10889 10890 10891 10891 10892 10894 10896 10897 10897 10897 10898 10897 10897 10896 10893 10890 10888 10887 10886 10886 10887 10888 10889 10888 10887 10886 10884 10881 10880 10879 10877 10877 10876 10876 10874 10872 10870 10867 10864 10861 10859 10856 10853 10850 10848 10847 10844 10840 10837 10834 10829 10825 10822 10820 10816 10813 10810
10862 10866 10870 10871 10873 10879 10882 10882 10883 10885 10885 10886 10889 10891 10891 10891 10891 10890 10889 10888 10885 10882 10880 10880 10880 10880 10880 10881 10882 10882 10881 10880 10878 10876 10874 10873 10871 10870 10869 10868 10867 10865 10863 10861 10858 10855 10853 10850 10847 10845 10843 10840 10838 10834 10830 10827 10823 10819 10815 10812 10809 10805 10802
10856 10860 10862 10864 10867 10871 10873 10873 10876 10878 10878 10878 10881 10884 10884 10884 10883 10882 10881 10880 10878 10875 10873 10873 10874 10873 10872 10874 10874 10875 10875 10874 10872 10869 10868 10866 10865 10863 10862 10860 10859 10857 10854 10852 10851 10848 10846 10844 10841 10838 10836 10833 10830 10826 10822 10819 10816 10812 10808 10804 10801 10798 10795
10850 10854 10855 10857 10860 10863 10864 10864 10868 10871 10870 10869 10873 10876 10877 10877 10875 10874 10873 10872 10871 10869 10866 10866 10867 10866 10865 10866 10866 10867 10868 10868 10866 10864 10861 10859 10857 10856 10854 10852 10850 10848 10846 10844 10842 10840 10838 10836 10834 10831 10828 10825 10822 10817 10814 10811 10808 10804 10801 10797 10793 10790 10787
10842 10847 10849 10850 10851 10853 10855 10856 10860 10863 10862 10861 10865 10868 10869 10869 10867 10866 10865 10865 10864 10862 10859 10859 10859 10859 10859 10859 10859 10860 10861 10861 10860 10858 10856 10852 10850 10848 10847 10844 10842 10839 10837 10835 10833 10831 10829 10827 10825 10823 10820 10817 10814 10809 10806 10804 10801 10797 10793 10790 10786 10783 10779
10832 10837 10841 10842 10843 10845 10847 10848 10852 10854 10853 10852 10856 10860 10861 10861 10860 10858 10857 10858 10858 10856 10853 10852 10851 10852 10853 10852 10852 10852 10852 10852 10852 10851 10849 10846 10843 10841 10840 10837 10834 10831 10829 10827 10825 10823 10821 10819 10817 10814 10811 10808 10806 10801 10797 10795 10793 10789 10785 10781 10778 10775 10772
10819 10825 10831 10834 10836 10840 10840 10840 10844 10846 10844 10844 10848 10852 10853 10853 10852 10851 10851 10851 10850 10849 10848 10847 10845 10845 10846 10846 10846 10845 10844 10844 10844 10843 10841 10839 10836 10835 10834 10831 10827 10824 10821 10819 10817 10815 10813 10811 10809 10806 10803 10800 10797 10794 10789 10787 10784 10781 10777 10774 10770 10767 10764
10807 10814 10821 10826 10829 10833 10833 10833 10836 10837 10836 10837 10840 10844 10845 10845 10844 10844 10844 10844 10843 10843 10843 10842 10840 10839 10839 10839 10839 10838 10837 10836 10836 10835 10833 10831 10830 10829 10828 10825 10820 10817 10814 10812 10810 10808 10806 10803 10801 10799 10795 10791 10789 10786 10782 10779 10776 10773 10770 10766 10762 10759 10755
10797 10804 10811 10817 10822 10827 10826 10825 10827 10829 10830 10831 10832 10834 10835 10836 10836 10837 10837 10836 10836 10836 10837 10836 10835 10833 10832 10832 10832 10832 10831 10829 10828 10827 10824 10823 10823 10823 10821 10818 10814 10810 10807 10805 10803 10801 10798 10796 10793 10791 10788 10784 10780 10778 10775 10771 10768 10765 10762 10758 10754 10751 10748
10787 10795 10803 10809 10815 10818 10817 10816 10820 10824 10826 10824 10822 10823 10826 10828 10829 10829 10829 10829 10830 10830 10830 10829 10828 10826 10826 10825 10826 10826 10824 10822 10820 10819 10816 10814 10814 10814 10812 10809 10806 10803 10800 10797 10795 10793 10791 10788 10786 10783 10781 10777 10773 10770 10767 10763 10760 10757 10754 10750 10746 10743 10740
10780 10788 10795 10800 10803 10806 10809 10812 10815 10818 10818 10816 10814 10815 10817 10819 10821 10821 10822 10823 10823 10823 10822 10821 10820 10820 10819 10818 10819 10819 10817 10815 10813 10811 10809 10806 10806 10805 10803 10800 10797 10795 10792 10789 10787 10785 10782 10780 10778 10775 10772 10769 10766 10762 10760 10756 10752 10749 10746 10743 10738 10735 10731
10774 10779 10783 10788 10793 10800 10806 10808 10808 10808 10809 10809 10808 10808 10809 10812 10814 10814 10815 10816 10816 10815 10814 10814 10814 10812 10811 10811 10811 10811 10810 10809 10806 10804 10801 10799 10798 10797 10795 10792 10789 10787 10784 10781 10779 10776 10774 10772 10770 10767 10764 10761 10758 10755 10752 10749 10745 10741 10738 10734 10730 10726 10723
10766 10771 10775 10781 10789 10795 10798 10799 10799 10799 10801 10802 10803 10803 10803 10805 10806 10807 10807 10808 10808 10807 10806 10806 10806 10805 10804 10803 10803 10802 10803 10802 10799 10797 10794 10792 10791 10789 10787 10784 10781 10779 10776 10774 10771 10768 10766 10764 10762 10759 10757 10754 10751 10748 10744 10741 10737 10733 10730 10726 10721 10717 10714
10762 10767 10771 10777 10782 10784 10787 10790 10791 10792 10793 10794 10796 10797 10798 10799 10799 10799 10800 10800 10799 10799 10798 10797 10797 10797 10797 10796 10794 10794 10794 10794 10792 10790 10787 10785 10784 10782 10779 10776 10774 10771 10769 10766 10763 10761 10759 10756 10753 10751 10748 10746 10743 10740 10736 10732 10728 10724 10721 10716 10712 10709 10705
10756 10759 10762 10767 10770 10774 10778 10782 10783 10785 10786 10787 10788 10790 10791 10791 10792 10792 10791 10791 10791 10791 10789 10789 10789 10790 10789 10788 10787 10786 10787 10786 10784 10782 10780 10778 10777 10775 10772 10769 10767 10765 10762 10759 10756 10753 10751 10748 10745 10742 10740 10737 10735 10731 10727 10724 10720 10716 10712 10707 10703 10700 10696
10747 10749 10754 10759 10763 10766 10771 10773 10775 10776 10778 10779 10780 10781 10782 10783 10783 10783 10784 10783 10783 10781 10780 10780 10781 10781 10781 10780 10779 10779 10778 10777 10776 10775 10773 10771 10770 10767 10765 10762 10760 10758 10755 10752 10749 10746 10743 10740 10737 10734 10731 10729 10725 10722 10719 10715 10711 10707 10703 10698 10694 10691 10687
10740 10742 10747 10751 10754 10757 10761 10764 10766 10768 10769 10771 10773 10773 10774 10774 10775 10775 10776 10775 10773 10771 10771 10771 10772 10773 10773 10772 10772 10771 10770 10769 10768 10766 10764 10764 10762 10760 10757 10755 10753 10751 10748 10745 10742 10739 10735 10733 10730 10726 10724 10720 10717 10714 10711 10707 10701 10697 10694 10689 10684 10681 10677
10732 10734 10738 10741 10745 10749 10752 10755 10758 10760 10762 10763 10764 10764 10765 10766 10766 10767 10768 10767 10765 10762 10760 10760 10762 10764 10765 10764 10764 10763 10761 10760 10759 10757 10756 10755 10753 10751 10749 10746 10745 10743 10740 10738 10735 10731 10728 10725 10722 10719 10716 10712 10708 10705 10703 10698 10692 10688 10685 10680 10675 10671 10667
10723 10726 10729 10733 10737 10741 10744 10747 10750 10752 10753 10753 10754 10755 10756 10757 10759 10760 10760 10759 10757 10754 10751 10750 10751 10753 10756 10756 10756 10754 10751 10749 10749 10747 10746 10745 10744 10742 10740 10738 10736 10734 10731 10730 10727 10723 10719 10716 10713 10710 10707 10702 10699 10696 10692 10688 10683 10679 10675 10671 10665 10660 10656
10715 10718 10721 10725 10729 10733 10736 10740 10742 10742 10743 10743 10745 10747 10747 10748 10751 10752 10751 10750 10749 10747 10744 10742 10741 10743 10746 10747 10746 10744 10741 10740 10739 10737 10736 10735 10734 10733 10731 10729 10727 10724 10722 10720 10718 10714 10710 10707 10703 10700 10697 10693 10689 10685 10681 10677 10673 10669 10664 10660 10655 10650 10646